Del Rio, TX

3:40 PM CDT on September 28, 2016 (GMT -0500)
Del Rio International

Weather History for KDRT - October, 2013

Change the Weather History Date:

Thursday, October 17, 2013

  Actual Average Record
Temperature  
Mean Temperature 63 °F 72 °F  
Max Temperature 68 °F 82 °F 99 °F (1993)
Min Temperature 57 °F 61 °F 45 °F (1967)
Degree Days  
Heating Degree Days 2 1  
Month to date heating degree days 5 3  
Since 1 July heating degree days 5 4  
Cooling Degree Days 0 7  
Month to date cooling degree days 169 155  
Year to date cooling degree days 3629 3250  
Growing Degree Days 12 (Base 50)    
Moisture  
Dew Point 58 °F    
Average Humidity 81    
Maximum Humidity 93    
Minimum Humidity 68    
Precipitation  
Precipitation 0.00 in 0.08 in 1.75 in (1962)
Month to date precipitation 1.40 1.44  
Year to date precipitation 14.33 17.15  
Sea Level Pressure  
Sea Level Pressure 30.02 in    
Wind  
Wind Speed 6 mph (ESE)    
Max Wind Speed 13 mph    
Max Gust Speed 16 mph    
Visibility 10 miles    
Events      
T = Trace of Precipitation, MM = Missing Value Source: NWS Daily Summary

Daily Weather History Graph

Daily Weather History Graph

Search for Another Location

Airport or City:

Trip Planner

Search our weather history database for the weather conditions in past years. The results will help you decide how hot, cold, wet, or windy it might be!

Date:

Astronomy

Oct. 17, 2013 Rise Set
Actual Time 7:46 AM CDT 7:10 PM CDT
Civil Twilight 7:22 AM CDT 7:34 PM CDT
Nautical Twilight 6:54 AM CDT 8:02 PM CDT
Astronomical Twilight 6:27 AM CDT 8:30 PM CDT
Moon 6:23 PM CDT (10/17) 6:25 AM CDT (10/17)
Length of Visible Light 12h 12m
Length of Day
11h 24m
Waxing Gibbous, 98% of the Moon is Illuminated
Oct 17
Waxing Gibbous
Oct 18
Full
Oct 26
Last Quarter
Nov 3
New
Nov 9
First Quarter

Hourly Weather History & Observations

Time (CDT) Temp. Dew Point Humidity Pressure Visibility Wind Dir Wind Speed Gust Speed Precip Events Conditions
12:53 AM 61.0 °F 57.9 °F 90% 30.07 in 10.0 mi Calm Calm - N/A   Clear
1:53 AM 61.0 °F 57.0 °F 87% 30.07 in 10.0 mi Calm Calm - N/A   Mostly Cloudy
2:53 AM 60.1 °F 57.0 °F 90% 30.06 in 10.0 mi North 3.5 mph - N/A   Clear
3:53 AM 57.9 °F 55.9 °F 93% 30.05 in 10.0 mi North 4.6 mph - N/A   Clear
4:53 AM 57.9 °F 55.0 °F 90% 30.04 in 10.0 mi North 4.6 mph - N/A   Clear
5:53 AM 57.0 °F 53.1 °F 87% 30.06 in 10.0 mi North 3.5 mph - N/A   Mostly Cloudy
6:53 AM 57.9 °F 53.1 °F 84% 30.06 in 10.0 mi NNE 4.6 mph - N/A   Overcast
7:53 AM 59.0 °F 53.1 °F 81% 30.07 in 10.0 mi ENE 6.9 mph - N/A   Overcast
8:53 AM 59.0 °F 53.1 °F 81% 30.09 in 10.0 mi ENE 5.8 mph - N/A   Mostly Cloudy
9:53 AM 63.0 °F 54.0 °F 72% 30.10 in 10.0 mi East 3.5 mph - N/A   Clear
10:53 AM 66.0 °F 55.0 °F 68% 30.10 in 10.0 mi SSE 5.8 mph - N/A   Clear
11:45 AM 66.2 °F 57.2 °F 73% 30.11 in 10.0 mi SSE 3.5 mph - N/A   Mostly Cloudy
11:53 AM 68.0 °F 57.0 °F 68% 30.08 in 10.0 mi SSE 5.8 mph - N/A   Mostly Cloudy
12:53 PM 68.0 °F 59.0 °F 73% 30.06 in 10.0 mi SE 4.6 mph - N/A   Overcast
1:53 PM 66.9 °F 59.0 °F 76% 30.03 in 10.0 mi SSE 8.1 mph - N/A   Overcast
2:53 PM 66.9 °F 59.0 °F 76% 29.99 in 10.0 mi SE 8.1 mph - N/A   Overcast
3:53 PM 68.0 °F 60.1 °F 76% 29.97 in 10.0 mi SSE 8.1 mph - N/A   Overcast
4:53 PM 66.9 °F 60.1 °F 79% 29.96 in 10.0 mi SE 5.8 mph - N/A   Overcast
5:53 PM 66.9 °F 60.1 °F 79% 29.94 in 10.0 mi SE 9.2 mph - N/A   Overcast
6:53 PM 66.0 °F 60.1 °F 81% 29.95 in 8.0 mi SSE 9.2 mph - N/A   Overcast
7:24 PM 64.4 °F 60.8 °F 88% 29.97 in 8.0 mi SSE 8.1 mph - N/A   Scattered Clouds
7:53 PM 64.9 °F 60.1 °F 84% 29.95 in 10.0 mi SE 5.8 mph - N/A   Scattered Clouds
8:53 PM 64.9 °F 60.1 °F 84% 29.96 in 10.0 mi ESE 4.6 mph - N/A   Overcast
9:53 PM 64.0 °F 60.1 °F 87% 29.96 in 10.0 mi ESE 4.6 mph - N/A   Mostly Cloudy
10:53 PM 64.0 °F 60.1 °F 87% 29.96 in 10.0 mi ESE 5.8 mph - N/A   Mostly Cloudy
11:53 PM 64.0 °F 60.1 °F 87% 29.95 in 10.0 mi ESE 4.6 mph - N/A   Mostly Cloudy